TIME,DELAY(SENSOR),PRES,T(CTD),SAL,OXYGEN,RAWTEMP,T(OPTODE),TCPHASE,TURBIDITY,TURBIDITY_GAIN,FLUOR,BETA,CDOM,ED411.5,ED443.8,ED489.6,PAR,COMP,TILT,TILTY(TILT),CHECK
1341444154,6467,255.6600036621093800,4.8766999244689940,34.9654006958007800,336.0661010742187500,762.5247192382812000,4.8478832244873050,34.6058998107910160,16,3,48,121,65,2147241988,2147556886,2147570916,2147363281,1032,0,-12,62823
1341444215,6469,252.4100036621093800,4.8912000656127930,34.9676017761230500,336.0769042968750000,761.9882202148438000,4.8666739463806150,34.5948181152343750,16,3,49,118,66,2147245548,2147559108,2147569110,2147363483,674,0,-12,8808
1341444276,6469,249.1399993896484400,4.9148001670837400,34.9701004028320300,334.8970031738281000,761.5020751953125000,4.8836941719055180,34.6271705627441400,16,3,50,116,66,2147244314,2147558947,2147572036,2147364502,249,0,-12,20966
1341444337,6468,245.8800048828125000,4.9127998352050780,34.9697990417480500,334.4050903320312500,761.4926147460938000,4.8840289115905760,34.6446113586425800,16,3,50,115,66,2147238669,2147559812,2147571021,2147363812,3344,0,-10,52534
1341444398,6468,242.6300048828125000,4.8916997909545900,34.9650993347168000,335.2956848144531000,761.9729003906250000,4.8672099113464355,34.6223487854003900,16,3,50,117,65,2147244082,2147560388,2147571400,2147364607,2807,0,-12,14661
1341444460,6468,239.3800048828125000,4.8829998970031740,34.9622993469238300,336.9057006835937500,762.2708129882812000,4.8567771911621090,34.5712089538574200,16,3,49,119,66,2147245901,2147558719,2147568850,2147362061,2394,0,-12,45053
1341444521,6467,236.2200012207031200,4.8930001258850100,34.9626007080078100,338.3418884277344000,762.0513916015625000,4.8644618988037110,34.5164413452148440,16,3,50,119,66,2147244927,2147560232,2147571258,2147360059,2149,0,-12,26081
1341444582,6468,233.1399993896484400,4.9138998985290530,34.9646987915039060,339.3337097167969000,761.6298217773438000,4.8792247772216800,34.4733314514160160,19,3,50,116,66,2147241901,2147559514,2147569599,2147363195,1874,0,-12,48631
1341444643,6469,230.0200042724609400,4.9588999748229980,34.9696006774902340,337.9952087402344000,760.2902832031250000,4.9261131286621090,34.4936904907226560,16,3,50,120,66,2147243286,2147560946,2147570564,2147360863,1664,0,-12,41132
1341444704,6468,226.9400024414062500,4.9569997787475590,34.9683990478515600,336.6592102050781000,760.1290283203125000,4.9317550659179690,34.5374183654785160,16,3,50,114,66,2147245055,2147561009,2147570358,2147359921,1375,0,-12,42993
1341444768,6468,223.7299957275390600,4.9752001762390140,34.9721984863281250,335.4957885742187500,759.6077880859375000,4.9499912261962890,34.5679817199707000,13,3,50,123,66,2147244621,2147561270,2147569832,2147363236,1000,0,-12,6425
1341444829,6468,220.6799926757812500,4.9549999237060550,34.9676017761230500,336.7495117187500000,760.2570190429688000,4.9272789955139160,34.5368003845214840,16,3,50,116,65,2147243634,2147556886,2147572863,2147362541,575,0,-12,40719
1341444892,6468,217.5399932861328000,4.9846000671386720,34.9698982238769500,336.6683044433594000,759.4686889648438000,4.9548587799072270,34.5239791870117200,16,3,50,118,65,2147243643,2147561883,2147571030,2147361366,114,0,-12,41485
1341444953,6467,214.5299987792968800,4.9965000152587890,34.9695014953613300,336.8039855957031000,758.5274047851562000,4.9877800941467285,34.5003089904785160,16,3,50,117,66,2147242001,2147561865,2147568557,2147361449,3387,0,-12,53553
1341445016,6468,211.4400024414062500,4.9991998672485350,34.9697990417480500,337.0549011230469000,758.9414062500000000,4.9732990264892580,34.4998588562011700,16,3,50,136,65,2147243715,2147562170,2147572109,2147362761,2902,0,-12,35418
1341445078,6469,208.4900054931640600,4.9854001998901370,34.9667015075683600,338.4526062011719000,759.1491699218750000,4.9660339355468750,34.4547996520996100,16,3,50,117,64,2147241475,2147561695,2147572666,2147359483,2618,0,-12,64914
1341445141,6467,205.4900054931640600,4.9506001472473145,34.9614982604980500,340.5132141113281000,760.2822875976562000,4.9263920783996580,34.4052696228027340,16,3,50,117,65,2147242655,2147559291,2147569906,2147361147,2364,0,-12,1994
1341445202,6469,202.6000061035156200,4.9397001266479490,34.9594993591308600,342.2513122558594000,760.5797729492188000,4.9159789085388180,34.3508605957031250,16,3,50,118,65,2147242097,2147556621,2147569037,2147360927,2182,0,-12,61714
1341445269,6466,199.4900054931640600,4.9544000625610350,34.9598999023437500,343.0663146972656000,760.2125854492188000,4.9288291931152340,34.3150787353515600,16,3,50,115,64,2147242194,2147560566,2147571199,2147359588,1880,0,-12,39729
1341445330,6466,196.6999969482422000,5.0152001380920410,34.9646987915039060,342.9637145996094000,758.9921875000000000,4.9715228080749510,34.2947692871093750,16,3,51,117,64,2147243528,2147562239,2147571291,2147360630,1579,0,-12,25268
1341445394,6466,193.8399963378906200,5.1690998077392580,34.9813995361328100,342.3992919921875000,755.1563110351562000,5.1055722236633300,34.2380714416503900,16,3,50,113,64,2147242893,2147560465,2147571903,2147362842,1371,0,-12,12547
1341445455,6467,191.2100067138672000,5.2272000312805180,34.9944992065429700,341.9826965332031000,752.9204101562500000,5.1836051940917970,34.2088012695312500,16,3,50,120,65,2147246906,2147559386,2147570774,2147361448,1061,0,-12,46993
1341445518,6467,188.5099945068359400,5.2227001190185550,34.9943008422851560,341.7589111328125000,752.4375000000000000,5.2004489898681640,34.2071685791015600,16,3,50,117,64,2147247460,2147561626,2147569243,2147362193,792,0,-12,46802
1341445579,6468,185.8699951171875000,5.2551999092102050,34.9984016418457000,341.7995910644531000,751.7595214843750000,5.2240910530090330,34.1921310424804700,16,3,50,116,64,2147243843,2147557915,2147572676,2147362678,341,0,-12,62424
1341445642,6469,183.1100006103515600,5.2568001747131350,34.9990997314453100,342.0976867675781000,751.6386718750000000,5.2283020019531250,34.1797904968261700,11,3,50,115,64,2147243880,2147556648,2147568196,2147360557,3365,0,-12,8300
1341445703,6467,180.4700012207031200,5.2687001228332520,34.9989013671875000,342.1301879882812500,751.3350219726562000,5.2388901710510250,34.1727294921875000,16,3,50,120,64,2147245974,2147556913,2147571240,2147361924,3113,0,-12,26135
1341445766,6467,177.7599945068359400,5.2715997695922850,34.9991989135742200,342.3775024414062500,751.2058715820312000,5.2433910369873050,34.1614685058593750,16,3,50,120,64,2147245251,2147556237,2147570129,2147360680,2560,0,-12,46987
1341445827,6468,175.1300048828125000,5.2741999626159670,34.9989013671875000,342.1942138671875000,751.0761718750000000,5.2479128837585450,34.1652793884277340,16,3,50,125,64,2147244666,2147559711,2147569600,2147360342,2365,0,-12,34228
1341445890,6468,172.5000000000000000,5.2870998382568360,35.0000991821289060,342.1083068847656000,750.7703247070312000,5.2585721015930180,34.1619987487793000,22,3,50,124,64,2147240173,2147559281,2147569869,2147361508,2144,0,-12,1522
1341445951,6468,170.0200042724609400,5.3034000396728520,35.0010986328125000,341.2615051269531000,750.2899780273438000,5.2753119468688965,34.1819305419921900,16,3,48,122,64,2147239282,2147557379,2147570541,2147358440,1859,0,-12,2248
1341446015,6467,167.5000000000000000,5.3340001106262210,35.0032005310058600,341.0665893554687500,749.4927978515625000,5.3030848503112790,34.1735496520996100,16,3,50,117,64,2147242970,2147557814,2147569612,2147361210,1473,0,-12,38026
1341446076,6469,165.1300048828125000,5.3379998207092285,35.0033988952636700,340.6098937988281000,749.2899169921875000,5.3101520538330080,34.1851501464843750,16,3,50,119,64,2147243725,2147557252,2147567579,2147361792,1094,0,-12,40913
1341446167,6468,160.7899932861328000,5.3640999794006350,35.0040016174316400,340.1216125488281000,748.4636840820312000,5.3389239311218260,34.1859092712402340,15,3,50,123,64,2147238957,2147557225,2147571003,2147362088,576,0,-12,60588
1341446228,6466,157.0599975585937500,5.3743000030517580,35.0047988891601560,339.9989929199219000,748.2324829101562000,5.3469729423522950,34.1858711242675800,16,3,50,124,65,2147244685,2147561106,2147570989,2147361434,43,0,-12,65432
1341446291,6467,153.1199951171875000,5.4011998176574710,35.0060005187988300,340.3366088867187500,747.4832763671875000,5.3730511665344240,34.1594696044921900,16,3,50,126,64,2147239643,2147557905,2147570523,2147363560,3158,0,-12,27401
1341446352,6468,149.3300018310547000,5.4300999641418460,35.0063018798828100,340.5463867187500000,746.7205810546875000,5.3995900154113770,34.1374588012695300,12,3,50,126,64,2147243231,2147558426,2147572251,2147363414,2752,0,-12,61818
1341446440,6466,144.5599975585937500,5.4408001899719240,35.0068016052246100,340.7455139160156000,746.3217773437500000,5.4134650230407715,34.1223983764648440,16,3,50,122,64,2147240246,2147555798,2147570957,2147360438,2169,0,-12,30963
1341446501,6503,142.1699981689453000,5.4456000328063965,35.0074996948242200,340.8479919433594000,746.1735229492188000,5.4186229705810550,34.1159896850585940,21,3,50,130,64,2147243222,2147557347,2147571199,2147362614,1853,0,-12,50579
1341446564,6468,139.7899932861328000,5.4534001350402830,35.0078010559082000,341.0740966796875000,745.9478149414062000,5.4264769554138180,34.1040115356445300,16,3,50,131,64,2147241338,2147555748,2147570038,2147361979,1688,0,-12,15101
1341446625,6467,137.5500030517578000,5.4825000762939450,35.0096015930175800,341.4085083007812500,745.1052856445312000,5.4557719230651855,34.0759506225585940,16,3,50,131,64,2147244008,2147556237,2147570546,2147361430,1609,0,-12,14648
1341446713,6467,133.8699951171875000,5.5005998611450195,35.0093994140625000,342.3216857910156000,744.5413208007812000,5.4753799438476560,34.0335693359375000,16,3,51,129,64,2147240214,2147555779,2147573562,2147362696,1092,0,-12,32156
1341446774,6468,130.5200042724609400,5.5265002250671390,35.0083007812500000,341.7528076171875000,743.9154052734375000,5.4971327781677250,34.0412101745605500,16,3,50,127,64,2147243642,2147557146,2147570691,2147360676,628,0,-12,21395
1341446837,6469,127.0599975585937500,5.5485000610351560,35.0088996887207000,340.5390930175781000,743.2559204101562000,5.5200500488281250,34.0700492858886700,16,3,50,132,64,2147239697,2147558632,2147569905,2147362912,325,0,-12,55880
1341446898,6466,123.7500000000000000,5.5592999458312990,35.0097999572753900,340.5758056640625000,742.9583740234375000,5.5303840637207030,34.0630989074707000,16,3,50,128,64,2147239999,2147556891,2147570061,2147360877,3298,0,-12,4585
1341446961,6468,120.3799972534179700,5.5977997779846190,35.0125999450683600,339.9172058105469000,741.8981933593750000,5.5672039985656740,34.0654487609863300,16,3,50,132,64,2147244273,2147558390,2147568996,2147361384,2727,0,-12,54135
1341447022,6467,117.0899963378906200,5.6248002052307130,35.0126991271972660,339.5002136230469000,740.9852905273438000,5.5988941192626950,34.0625495910644500,12,3,52,129,64,2147243848,2147557667,2147570952,2147361274,2457,0,-12,37271
1341447085,6465,113.6900024414062500,5.4256000518798830,34.9784011840820300,342.9974060058594000,745.8966064453125000,5.4282531738281250,34.0365104675293000,16,3,55,129,64,2147240379,2147556566,2147568200,2147360580,1967,0,-12,37230
1341447146,6502,110.3799972534179700,5.3751997947692870,34.9655990600585940,344.3305053710937500,748.0100097656250000,5.3547167778015140,34.0321197509765600,16,3,57,135,66,2147240758,2147556689,2147571720,2147359026,1787,0,-12,36155
1341447209,6469,106.9599990844726600,5.5043001174926760,34.9751014709472660,343.5327148437500000,744.8640136718750000,5.4641609191894530,33.9982910156250000,14,3,54,146,64,2147242006,2147555597,2147570701,2147361014,1521,0,-12,35589
1341447270,6468,103.6800003051757800,5.6802000999450680,34.9962997436523440,340.6780090332031000,740.2142944335938000,5.6256499290466310,34.0067291259765600,16,3,54,147,64,2147241014,2147557142,2147570632,2147360369,1294,0,-12,36464
1341447334,6468,100.2300033569336000,5.7607002258300780,35.0108985900878900,340.6596984863281000,737.4042968750000000,5.7230930328369140,33.9533691406250000,16,3,53,141,64,2147242527,2147558522,2147571368,2147358619,818,0,-12,52710
1341447395,6467,96.9400024414062500,5.7947998046875000,35.0116004943847660,341.5766906738281000,736.2446289062500000,5.7632751464843750,33.8995590209960940,14,3,52,154,64,2147242499,2147554559,2147570829,2147362399,203,0,-12,40576
1341447458,6468,93.5599975585937500,5.8176999092102050,35.0120010375976560,340.1202087402344000,735.4282836914062000,5.7915477752685550,33.9342498779296900,17,3,52,158,64,2147242587,2147558116,2147570367,2147358632,3304,0,-12,43558
1341447519,6466,90.3799972534179700,5.8544998168945310,35.0122985839843750,339.8031005859375000,734.4193115234375000,5.8264808654785160,33.9258995056152340,34,3,53,161,64,2147241010,2147554559,2147573398,2147361626,2829,0,-12,29477
1341447582,6468,87.1699981689453100,5.9114999771118160,35.0149993896484400,340.1799926757812500,732.9489746093750000,5.8773541450500490,33.8846092224121100,15,3,55,148,65,2147239880,2147555515,2147571167,2147360173,2416,0,-12,5186
1341447643,6467,84.1299972534179700,5.9348998069763180,35.0158996582031250,340.4902038574219000,732.1777954101562000,5.9040279388427730,33.8593902587890600,15,3,55,147,64,2147239615,2147556850,2147569156,2147361704,2079,0,-12,11941
1341447706,6504,81.0100021362304700,5.9601001739501950,35.0149993896484400,342.0250854492187500,731.3745117187500000,5.9318051338195800,33.7910881042480500,16,3,56,149,64,2147243807,2147553704,2147569480,2147361508,1783,0,-12,32661
1341447767,6466,77.9499969482421900,6.0054998397827150,35.0147018432617200,344.1715087890625000,730.1019897460938000,5.9757819175720215,33.6936187744140600,56,3,57,146,64,2147240539,2147558303,2147568516,2147361553,1612,0,-12,58793
1341447830,6465,74.7399978637695300,6.0774998664855960,35.0194015502929700,343.8044128417969000,727.8176879882812000,6.0546717643737790,33.6628417968750000,17,3,58,183,64,2147240182,2147557764,2147571108,2147361466,1289,0,-12,29964
1341447891,6466,71.5699996948242200,6.1866002082824710,35.0299987792968750,342.0344848632812500,725.2465209960938000,6.1433868408203125,33.6748008728027340,19,3,56,168,64,2147237728,2147554897,2147571126,2147359725,1011,0,-12,28052
1341447955,6467,68.1699981689453100,6.1515998840332030,35.0238990783691400,343.0145874023437500,725.1500854492188000,6.1467089653015140,33.6396293640136700,17,3,60,159,64,2147235839,2147557215,2147571286,2147361188,712,0,-12,3405
1341448016,6468,64.8600006103515600,6.1814999580383300,35.0205993652343750,345.5476989746094000,724.9025878906250000,6.1552429199218750,33.5487289428710940,16,3,66,165,65,2147235112,2147555784,2147570605,2147360008,111,0,-12,33908
1341448079,6467,61.4099998474121100,6.1570000648498535,35.0135002136230500,349.6368103027344000,725.0737304687500000,6.1493420600891110,33.4145317077636700,16,3,74,184,64,2147239446,2147558500,2147569229,2147360282,2981,0,-12,47321
1341448140,6504,58.0999984741210940,6.2354998588562010,35.0172996520996100,350.9255065917969000,723.7639770507812000,6.1944890022277830,33.3468589782714840,16,3,78,170,64,2147240447,2147556918,2147571053,2147360264,2699,0,-12,55397
1341448203,6466,54.7700004577636700,6.3243999481201170,35.0194015502929700,350.9986877441406000,721.0927124023438000,6.2865028381347660,33.2948188781738300,24,3,88,189,64,2147238865,2147556694,2147569402,2147360731,2331,0,-12,9507
1341448264,6465,51.6300010681152340,6.4377999305725100,35.0266990661621100,349.1470947265625000,717.6978149414062000,6.4032921791076660,33.2933006286621100,20,3,94,187,65,2147237837,2147558262,2147573937,2147360474,2135,0,-11,11174
1341448327,6504,48.4300003051757800,6.3625998497009280,34.9972000122070300,351.9583129882812500,719.2260742187500000,6.3507370948791500,33.2281494140625000,26,3,122,250,64,2147241421,2147556337,2147573558,2147361901,1757,0,-11,61520
1341448388,6471,45.4500007629394500,6.5637998580932620,34.9818000793457000,354.9063110351562500,714.2675170898438000,6.5211372375488280,33.0395698547363300,36,3,169,288,64,2147237846,2147557627,2147571533,2147360836,1269,0,-10,25914
1341448451,6471,42.7000007629394500,6.7336001396179200,34.9823989868164060,356.5965881347656000,709.7194213867188000,6.6771368980407715,32.9011993408203100,44,3,198,308,65,2147238308,2147556419,2147574015,2147360992,910,0,-12,26563
1341448512,6470,40.2299995422363300,6.8847999572753910,34.9701995849609400,358.6437072753906000,704.2650756835938000,6.8638501167297360,32.7359580993652340,45,3,262,376,66,2147239962,2147554875,2147574275,2147361786,855,0,-11,55011
1341448576,6468,37.8300018310546900,6.9640002250671390,34.9157981872558600,362.5603942871094000,703.4581909179688000,6.8914361000061035,32.5959510803222660,54,3,416,414,66,2147239716,2147558609,2147574916,2147364931,2837,0,-12,56915
1341448637,6505,35.9799995422363300,7.1448998451232910,34.9156990051269500,365.7973022460937500,697.7434082031250000,7.0865731239318850,32.3911094665527340,66,3,545,506,64,2147239076,2147559194,2147575665,2147359931,2801,0,-12,36362
1341448728,6470,32.5999984741210940,7.4267997741699220,34.9259986877441400,368.9731140136719000,689.2495117187500000,7.3758029937744140,32.1414299011230500,82,3,631,579,64,2147240237,2147559995,2147583506,2147359872,2069,0,-12,29248
1341448789,6471,29.0599994659423830,7.6138000488281250,34.9170989990234400,373.0133056640625000,683.3917236328125000,7.5747199058532715,31.9146995544433600,74,3,720,635,66,2147241536,2147563661,2147585215,2147364684,1664,0,-12,46973
1341448853,6469,25.3600006103515620,7.8386001586914060,34.9115982055664060,381.7988891601562500,677.2725219726562000,7.7820448875427250,31.5440406799316400,87,3,778,673,64,2147247881,2147570820,2147594349,2147365274,1177,1,-12,45482
1341448914,6469,22.2299995422363280,7.9088997840881350,34.9127006530761700,391.2058105468750000,674.2819213867188000,7.8831977844238280,31.2179393768310550,87,3,767,624,64,2147250185,2147575675,2147600685,2147369435,820,0,-12,44886
1341448977,6470,19.4799995422363280,8.2466001510620120,34.8974990844726560,396.5573120117187500,664.9105224609375000,8.1994400024414060,30.9067993164062500,81,3,741,561,63,2147261640,2147585028,2147611633,2147372287,3192,0,-10,56243
1341449038,6469,17.6499996185302730,8.7294998168945310,34.9169006347656250,400.5162048339844000,652.1275024414062000,8.6290645599365230,30.5831604003906250,85,3,785,596,62,2147264521,2147592676,2147617357,2147371418,2220,0,-10,17428
1341449118,6469,15.8100004196167000,9.8475999832153320,34.9687995910644500,400.7431030273437500,622.2202148437500000,9.6266822814941400,30.0936698913574220,90,3,900,602,62,2147270559,2147597457,2147627515,2147375386,1388,3,-10,26705
1341449190,6471,14.4399995803833000,10.8950996398925780,34.9682006835937500,382.5380859375000000,587.6818237304688000,10.7664403915405270,30.0676498413085940,80,3,970,576,63,2147278020,2147601517,2147631972,2147379908,337,1,-11,18160
1341449295,6471,11.4300003051757810,11.0338001251220700,34.9840011596679700,372.1943969726562500,579.9365234375000000,11.0203304290771480,30.2514705657959000,108,3,841,542,61,2147303323,2147630441,2147658006,2147389599,2783,1,-11,42473
1341449356,6469,8.0399999618530270,11.2677001953125000,34.9824981689453100,368.4287109375000000,572.7291870117188000,11.2560501098632810,30.2538700103759770,79,3,750,537,60,2147342829,2147674984,2147694833,2147404959,2362,1,-14,62891
1341449411,6471,5.0399999618530270,11.7086000442504880,34.9900016784668000,358.9137878417969000,559.3812255859375000,11.6912803649902340,30.3409099578857420,77,3,643,512,60,2147381915,2147710326,2147721827,2147423780,1834,5,-7,45346
1341449458,6470,3.8599998950958250,0.0000000000000000,0.0000000000000000,356.5068054199219000,558.2163696289062000,11.7291803359985350,30.3978595733642580,79,3,616,480,60,2147394568,2147727131,2147735816,2147432612,1786,0,-11,48040
1341449481,6470,2.7999999523162840,0.0000000000000000,0.0000000000000000,354.8919067382812500,557.9423217773438000,11.7381000518798830,30.4438991546630860,78,3,614,489,60,2147411811,2147745224,2147749092,2147439716,1594,-2,-13,64873
